Overview Statistics Trail Chart Weather Telemetry Raw packets
 

This is the latest recevied weather packets stored in our database for station/object KN1OBI-13. If no packets are shown the sender has not sent any weather packets the latest 10 day(s).

<< 23 24 25 26 27 28 29 >>
Time Temp. Humidity Pressure Rain* Wind** Luminosity Snow
1788267392 17.78° C 94% 997.4 hPa 3.56 mm - - -
1788266792 17.78° C 94% 997 hPa 1.02 mm - - -
1788266191 17.78° C 94% 997.3 hPa 0.51 mm - - -
1788265614 17.78° C 94% 997 hPa 1.02 mm - - -
1788264991 17.78° C 93% 997 hPa 5.33 mm - - -
1788264391 17.78° C 93% 997.3 hPa 5.33 mm - - -
1788263791 17.78° C 93% 996.9 hPa 2.29 mm - - -
1788263191 17.78° C 93% 997.3 hPa 1.78 mm - - -
1788262591 17.78° C 92% 997.4 hPa 0.51 mm - - -
1788261991 18.33° C 92% 997.2 hPa 0.51 mm - - -
1788261391 17.78° C 92% 997.3 hPa 0 mm - - -
1788260792 18.33° C 92% 997 hPa 0 mm - - -
1788260191 18.33° C 92% 997.1 hPa 0 mm - - -
1788259591 17.78° C 92% 997 hPa 0 mm - - -
1788258991 17.78° C 92% 996.9 hPa 0 mm - - -
1788258391 17.78° C 91% 996.8 hPa 0 mm - - -
1788257792 17.78° C 91% 996.8 hPa 0 mm - - -
1788257192 18.33° C 91% 996.8 hPa 0 mm - - -
1788256591 17.78° C 90% 996.8 hPa 0 mm - - -
1788255991 17.78° C 90% 996.7 hPa 0 mm - - -
1788255391 18.33° C 90% 996.8 hPa 0 mm - - -
1788254791 18.33° C 89% 996.9 hPa 0 mm - - -
1788254192 18.33° C 89% 996.9 hPa 0 mm - - -
1788253592 18.33° C 89% 996.9 hPa 0 mm - - -
1788252991 18.33° C 89% 996.6 hPa 0 mm - - -

* Rain latest hour (hover to see other rain measurements)
** Current wind speed in m/s (hover to see current wind gust speed)